sat.trackr.live / text

‹ back to catalog

STARLINK-31830

NORAD 59769 · 2024-091S

PAYLOAD ACTIVE UNKNOWN

§ Identity

Operator
Country
US
Launch date
2024-05-14
Launch site
AFWTR
Launch vehicle
Mass (kg)
RCS (m²)

Purposes: comms

External: N2YO · Heavens-Above · Gunter

§ Orbital elements

Epoch: 2026-05-24T23:38:39.660000Z

Period
94.11 min
Inclination
53.1607°
Eccentricity
0.0001116
Mean motion
15.30194459 rev/d
Perigee alt
474.5 km
Apogee alt
476.0 km
Semi-major
6,853.4 km
B*
1.7802e-5
RAAN
32.6379°
Arg perigee
96.8327°
Mean anomaly
263.2801°
Rev number
11,468

§ Raw data

STARLINK-318301 59769U 24091S   26144.98518125  .00000168  00000+0  17802-4 0  99942 59769  53.1607  32.6379 0001116  96.8327 263.2801 15.30194459114687

JSON: /api/v1/satellites/59769 · /tle

For live sub-satellite position, see the globe view (requires WebGL).

§ Visibility from observer

Set your observer location to see the next 7 days of passes ≥ 10°. The values pass through the URL so the page stays shareable.

No JS? Fill the form by hand. The geolocation button needs JavaScript.